Regional Weather Roundup
Issued by NWS

Home | Current Version | Previous Version | Graphics & Text | Print | Product List | Glossary On
Versions: 1 2 3 4 5 6 7 8 9 10 11 12 13 14 15 16 17 18 19 20 21 22 23 24 25 26 27 28 29 30 31 32 33 34 35 36 37 38 39 40 41 42 43 44 45 46 47 48 49 50
344
ASUS43 KMPX 300410
RWRMN
WEATHER ROUNDUP FOR MINNESOTA
NATIONAL WEATHER SERVICE TWIN CITIES/CHANHASSEN MN
1100 PM CDT WED MAR 29 2017


NOTE: "FAIR" INDICATES FEW OR NO CLOUDS BELOW 12,000 FEET WITH NO
SIGNIFICANT WEATHER AND/OR OBSTRUCTIONS TO VISIBILITY. N/A MEANS
CURRENT SKY AND/OR WEATHER CONDITIONS ARE NOT AVAILABLE.

MNZ060>063-068>070-300500-
   Twin Cities Metro

CITY           SKY/WX    TMP DP  RH WIND       PRES   REMARKS
TWIN CITIES    CLOUDY    43  36  76 E13       30.10F
ST PAUL        CLOUDY    43  37  79 E13       30.12F
CRYSTAL        CLOUDY    43  36  76 E6        30.10S
BLAINE         DRIZZLE   43  39  87 E5        30.11S
LAKEVILLE      CLOUDY    39  39 100 E14       30.08S
EDEN PRAIRIE   CLOUDY    43  37  79 E12       30.07F
SOUTH ST PAUL  CLOUDY    43  36  77 E8        30.10F
LAKE ELMO      MOCLDY    41  36  81 E8        30.11F
$$
MNZ001>005-007-008-013>017-022>024-027-028-300500-
   Northwest Minnesota

CITY           SKY/WX    TMP DP  RH WIND       PRES   REMARKS
BEMIDJI        CLEAR     39  31  72 SE8       30.07F
HALLOCK        MOCLDY    46  39  76 S20       29.96S
ROSEAU         PTCLDY    46  36  66 S12       29.99F
WARROAD        CLOUDY    46  36  66 S15G21    30.01F
THIEF RVR FALL   N/A     44  34  67 S14       30.02
CROOKSTON      CLEAR     45  37  76 S20G26    30.02S
FOSSTON        CLEAR     39  30  70 S10       30.05F
DETROIT LAKES  CLEAR     41  34  75 S6        30.08F
MOORHEAD       CLEAR     43  37  81 S14       30.07S
PARK RAPIDS    CLEAR     41  29  62 SE6       30.08F
MAHNOMEN       FAIR      39  32  76 S8        30.05F
$$
MNZ006-009>011-018-025>026-300500-
   North Central Minnesota

CITY           SKY/WX    TMP DP  RH WIND       PRES   REMARKS
BAUDETTE       MOCLDY    43  32  65 S14G21    30.04F
FLAG ISLAND    PTCLDY    37  30  75 S18       30.00F
INTL FALLS     CLEAR     38  28  67 SE7       30.10F
WASKISH        CLEAR     41  34  75 SE7       30.07F
BIG FORK       CLEAR     37  28  70 SE7       30.11F
LONGVILLE      CLOUDY    36  30  80 E3        30.11S
GRAND RAPIDS   CLOUDY    33  28  81 SE3       30.14F
CRANE LAKE     CLEAR     34  25  69 S3        30.17S
ORR            CLEAR     34  23  64 CALM      30.11F
COOK           CLEAR     34  25  69 CALM      30.14F
WALKER         FAIR      37  30  75 E3        30.10S
$$
MNZ012-019>021-037-300500-
   Northeast Minnesota

CITY           SKY/WX    TMP DP  RH WIND       PRES   REMARKS
DULUTH         CLOUDY    31  28  89 E10       30.14F WCI  22
ELY            CLOUDY    28  23  80 CALM      30.15F
HIBBING        CLOUDY    28  25  88 SE3       30.14F
EVELETH        CLOUDY    32  26  76 CALM      30.15F
DULUTH HARBOR  MOCLDY    36  32  87 NE18      30.19F
TWO HARBORS    CLOUDY    34  28  80 NE8       30.16F WCI  27
SILVER BAY     CLOUDY    32  28  86 NE7       30.17F WCI  26
GRAND MARAIS     N/A     34  24  67 NE13      30.23F WCI  25
G MARAIS ARPRT CLOUDY    27  18  69 NE7       30.19F WCI  19
$$
MNZ029>031-032-039>041-046>048-054>057-064-300500-
   West Central Minnesota

CITY           SKY/WX    TMP DP  RH WIND       PRES   REMARKS
FERGUS FALLS   CLEAR     37  34  87 S3        30.13S
WHEATON        CLEAR     39  36  87 S7        30.11F
MORRIS         CLOUDY    41  37  87 SE9       30.08F
ALEXANDRIA     MOCLDY    37  35  92 CALM      30.09F
ELBOW LAKE     FAIR      36  35  99 W3        30.10S
WADENA         CLOUDY    36  32  87 CALM      30.08F
GLENWOOD       CLOUDY    37  36  93 S3        30.10S
APPLETON       CLOUDY    43  37  81 CALM      30.09F
BENSON         CLOUDY    43  36  75 CALM      30.12S
ORTONVILLE     CLOUDY    43  37  81 SE13      30.09S
MADISON        CLOUDY    45  39  81 SE8       30.09F
WILLMAR        CLOUDY    43  39  87 SE8       30.11S
$$
MNZ033>034-036-042>043-049>051-058-059-300500-
   Central Minnesota

CITY           SKY/WX    TMP DP  RH WIND       PRES   REMARKS
ST CLOUD       CLOUDY    39  36  89 CALM      30.10F
SAUK CENTRE    FAIR      35  34  97 CALM      30.10S
PAYNESVILLE    CLOUDY    41  38  89 SE6       30.11S
AITKIN         PTCLDY    34  27  75 CALM      30.12F
PINE RIVER     CLOUDY    36  30  80 E7        30.14S
BRAINERD       PTCLDY    37  31  78 E3        30.11F
STAPLES        PTCLDY    36  30  80 CALM      30.09F
LONG PRAIRIE   FAIR      34  32  93 CALM      30.10S
LITTLE FALLS   CLOUDY    36  32  87 CALM      30.11S
LITCHFIELD     CLOUDY    43  41  93 E8        30.10S
BUFFALO        DRIZZLE   41  38  86 E9        30.11F
MAPLE LAKE     CLOUDY    43  41  93 E5        30.11S
HUTCHINSON     CLOUDY    41  40  94 E8        30.09F
$$
MNZ037-044-045-052-053-300500-
   East Central Minnesota

CITY           SKY/WX    TMP DP  RH WIND       PRES   REMARKS
PRINCETON      CLOUDY    43  36  75 E5        30.11S
MORA           PTCLDY    34  30  86 CALM      30.14S
CAMBRIDGE      CLOUDY    45  34  65 CALM      30.10S
RUSH CITY      CLOUDY    39  32  76 NE7       30.12F
MOOSE LAKE     CLOUDY    32  30  93 E6        30.13F WCI  26
CLOQUET        CLOUDY    30  28  93 E7        30.14F WCI  23
MCGREGOR       CLOUDY    32  30  93 E3        30.14F
$$
MNZ071>073-080-081-089-090-097-098-300500-
   Southwest Minnesota

CITY           SKY/WX    TMP DP  RH WIND       PRES   REMARKS
MONTEVIDEO     CLOUDY    41  37  87 SE10      30.09F
GRANITE FALLS  CLOUDY    42  39  88 E6        30.10F
CANBY          CLOUDY    42  38  87 SE5       30.08F
MARSHALL       LGT RAIN  40  38  93 E8        30.07F
REDWOOD FALLS  CLOUDY    41  37  86 E8        30.07F
OLIVIA         CLOUDY    41  37  87 E9        30.08S
PIPESTONE      CLOUDY    37  34  87 E8        30.01F
WINDOM         DRIZZLE   37  37 100 NE17      30.03S
WORTHINGTON    LGT RAIN  37  36  96 NE16      30.00F
JACKSON        LGT SNOW  37  37 100 E15       30.00F
TRACY          DRIZZLE   40  38  96 E12       30.05F
SLAYTON        CLOUDY    36  35  97 E12       30.02F
$$
MNZ065>067-074>077-082>085-091>093-300500-
   South Central Minnesota

CITY           SKY/WX    TMP DP  RH WIND       PRES   REMARKS
MANKATO        LGT RAIN  40  37  89 E17G29    30.05F
NEW ULM        LGT RAIN  39  37  93 E5        30.06S
ST JAMES       LGT RAIN  39  37  93 E14       30.05S
FAIRMONT       LGT RAIN  39  37  92 E14       30.01F
GLENCOE        CLOUDY    41  41 100 E9        30.08F
FARIBAULT      LGT RAIN  39  39 100 NE13G18   30.06F
OWATONNA       LGT RAIN  39  36  87 E16       30.04F
WASECA         CLOUDY    39  36  87 E15       30.05F
ALBERT LEA     CLOUDY    37  37 100 E20G32    30.00F
$$
MNZ078>079-086>088-094>096-300500-
   Southeast Minnesota

CITY           SKY/WX    TMP DP  RH WIND       PRES   REMARKS
ROCHESTER      CLOUDY    39  36  89 E17       30.04F
RED WING       DRIZZLE   43  37  81 E9        30.08F
STANTON        LGT RAIN  41  38  86 E15       30.06F
DODGE CENTER   LGT RAIN  37  36  93 E21G26    30.04F
WINONA         CLOUDY    37  36  93 E13G18    30.10F
AUSTIN         DRIZZLE   39  36  87 E23G30    30.01F
PRESTON        LGT RAIN  38  35  89 E16G26    30.04F
$$
ABBREVIATIONS USED IN REMARKS
   TC - TEMPERATURES IN CELSIUS
  WCI - WIND CHILL INDEX
   HX - HEAT INDEX
  VSB - VISIBILITY
$$




USA.gov is the U.S. government's official web portal to all federal, state and local government web resources and services.